Joint Base Elmendorf-Richardson, AK

12:27 AM AKST on February 24, 2017 (GMT -0900)
Elmendorf Air Force Base

Weather History for PAED - January, 2012

Change the Weather History Date:

Thursday, January 12, 2012

  Actual Average Record
Temperature  
Mean Temperature 18 °F -  
Max Temperature 28 °F 15 °F 41 °F (2007)
Min Temperature 9 °F 1 °F -25 °F (1972)
Degree Days  
Heating Degree Days 46    
Moisture  
Dew Point 11 °F    
Average Humidity 83    
Maximum Humidity 100    
Minimum Humidity 73    
Precipitation  
Precipitation 0.05 in - - ()
Snow  
Snow 0.00 in - - ()
Snow Depth 15.00 in    
Sea Level Pressure  
Sea Level Pressure 29.60 in    
Wind  
Wind Speed 8 mph (NW)    
Max Wind Speed 17 mph    
Max Gust Speed -    
Visibility 3 miles    
Events Snow    
Averages and records for this station are not official NWS values.
T = Trace of Precipitation, MM = Missing Value Source: NWS Daily Summary

Daily Weather History Graph

Daily Weather History Graph

Search for Another Location

Airport or City:

Trip Planner

Search our weather history database for the weather conditions in past years. The results will help you decide how hot, cold, wet, or windy it might be!

Date:

Astronomy

Jan. 12, 2012 Rise Set
Actual Time 10:02 AM AKST 4:13 PM AKST
Civil Twilight 9:04 AM AKST 5:10 PM AKST
Nautical Twilight 8:07 AM AKST 6:08 PM AKST
Astronomical Twilight 7:14 AM AKST 7:00 PM AKST
Moon 10:03 PM AKST (1/12) 10:27 AM AKST (1/12)
Length of Visible Light 8h 06m
Length of Day
6h 11m
Waning Gibbous, 86% of the Moon is Illuminated
Jan 12
Waning Gibbous
Jan 16
Last Quarter
Jan 22
New
Jan 30
First Quarter
Feb 7
Full

Hourly Weather History & Observations

Time (AKST) Temp. Windchill Dew Point Humidity Pressure Visibility Wind Dir Wind Speed Gust Speed Precip Events Conditions
12:03 AM 28.4 °F 23.3 °F 26.6 °F 93% 29.46 in 2.5 mi SSW 4.6 mph - N/A Snow Light Snow
12:04 AM 28.4 °F 23.3 °F 26.6 °F 93% 29.46 in 3.0 mi SSW 4.6 mph - N/A Snow Light Snow
12:07 AM 28.4 °F 23.3 °F 26.6 °F 93% 29.46 in 4.0 mi SW 4.6 mph - N/A Snow Light Snow
12:24 AM 26.6 °F 19.1 °F 26.6 °F 100% 29.46 in 6.0 mi SW 6.9 mph - N/A Snow Light Snow
12:41 AM 26.6 °F 19.1 °F 26.6 °F 100% 29.47 in 6.0 mi SW 6.9 mph - N/A Snow Light Snow
12:48 AM 26.6 °F 16.8 °F 26.6 °F 100% 29.47 in 5.0 mi SW 10.4 mph - N/A Snow Light Snow
12:53 AM 26.6 °F 14.3 °F 26.6 °F 100% 29.47 in 4.0 mi SW 16.1 mph - N/A Snow Light Snow
12:55 AM 27.1 °F 14.9 °F 25.7 °F 94% 29.47 in 4.0 mi SW 16.1 mph - 0.00 in Snow Light Snow
12:56 AM 26.6 °F 14.7 °F 24.8 °F 93% 29.47 in 4.0 mi SW 15.0 mph - N/A Snow Light Snow
1:00 AM 26.6 °F 15.7 °F 24.8 °F 93% 29.47 in 4.0 mi WSW 12.7 mph - N/A   Overcast
1:09 AM 26.6 °F 17.5 °F 24.8 °F 93% 29.47 in 7.0 mi WSW 9.2 mph - N/A   Overcast
1:12 AM 26.6 °F 16.2 °F 24.8 °F 93% 29.47 in 8.0 mi WSW 11.5 mph - N/A   Overcast
1:20 AM 26.6 °F 13.8 °F 24.8 °F 93% 29.47 in 7.0 mi WSW 17.3 mph - N/A Snow Light Snow
1:29 AM 26.6 °F 15.7 °F 24.8 °F 93% 29.47 in 6.0 mi West 12.7 mph - N/A   Overcast
1:40 AM 26.6 °F 17.5 °F 24.8 °F 93% 29.47 in 3.0 mi West 9.2 mph - N/A Snow Light Snow
1:42 AM 24.8 °F 16.9 °F 24.8 °F 100% 29.47 in 3.0 mi WNW 6.9 mph - N/A Snow Light Snow
1:55 AM 25.2 °F 19.5 °F 23.2 °F 92% 29.47 in 6.0 mi NNW 4.6 mph - 0.00 in Snow Light Snow
2:33 AM 23.0 °F - 21.2 °F 93% 29.48 in 5.0 mi Calm Calm - N/A Snow Light Snow
2:55 AM 23.5 °F 17.6 °F 21.4 °F 91% 29.48 in 4.0 mi West 4.6 mph - 0.00 in Snow Light Snow
3:01 AM 23.0 °F 13.9 °F 21.2 °F 93% 29.48 in 2.5 mi West 8.1 mph - N/A Snow Light Snow
3:04 AM 23.0 °F 13.9 °F 21.2 °F 93% 29.49 in 2.5 mi West 8.1 mph - N/A Snow Light Snow
3:15 AM 23.0 °F 14.7 °F 19.4 °F 86% 29.49 in 3.0 mi West 6.9 mph - N/A Snow Light Snow
3:23 AM 23.0 °F 14.7 °F 19.4 °F 86% 29.49 in 5.0 mi West 6.9 mph - N/A Snow Light Snow
3:30 AM 23.0 °F 14.7 °F 19.4 °F 86% 29.49 in 7.0 mi West 6.9 mph - N/A Snow Light Snow
3:55 AM 22.6 °F 15.3 °F 19.8 °F 89% 29.49 in 5.0 mi West 5.8 mph - 0.00 in Snow Light Snow
4:05 AM 23.0 °F 15.8 °F 19.4 °F 86% 29.49 in 6.0 mi WNW 5.8 mph - N/A Snow Light Snow
4:15 AM 23.0 °F 14.7 °F 19.4 °F 86% 29.49 in 3.0 mi WNW 6.9 mph - N/A Snow Light Snow
4:16 AM 23.0 °F 15.8 °F 19.4 °F 86% 29.50 in 2.5 mi WNW 5.8 mph - N/A Snow Light Snow
4:20 AM 23.0 °F 15.8 °F 19.4 °F 86% 29.50 in 2.0 mi WNW 5.8 mph - N/A Snow Light Snow
4:23 AM 21.2 °F 12.6 °F 19.4 °F 93% 29.50 in 1.8 mi WNW 6.9 mph - N/A Snow Light Snow
4:27 AM 21.2 °F 10.9 °F 19.4 °F 93% 29.50 in 1.5 mi West 9.2 mph - N/A Snow Light Snow
4:30 AM 21.2 °F 10.9 °F 19.4 °F 93% 29.50 in 1.2 mi West 9.2 mph - N/A Snow Light Snow
4:32 AM 21.2 °F 10.9 °F 19.4 °F 93% 29.50 in 1.0 mi West 9.2 mph - N/A Snow Light Snow
4:34 AM 21.2 °F 10.9 °F 19.4 °F 93% 29.50 in 1.0 mi West 9.2 mph - N/A Snow Light Snow
4:35 AM 21.2 °F 10.1 °F 19.4 °F 93% 29.50 in 0.8 mi West 10.4 mph - N/A Snow Light Snow
4:36 AM 21.2 °F 9.5 °F 19.4 °F 93% 29.50 in 0.8 mi West 11.5 mph - N/A Snow Light Snow
4:38 AM 21.2 °F 8.3 °F 19.4 °F 93% 29.50 in 0.8 mi West 13.8 mph - N/A Snow Light Snow
4:39 AM 21.2 °F 7.8 °F 19.4 °F 93% 29.50 in 0.8 mi West 15.0 mph - N/A Snow Light Snow
4:41 AM 21.2 °F 8.9 °F 19.4 °F 93% 29.50 in 1.0 mi West 12.7 mph - N/A Snow Light Snow
4:42 AM 21.2 °F 8.9 °F 19.4 °F 93% 29.50 in 1.0 mi West 12.7 mph - N/A Snow Light Snow
4:44 AM 21.2 °F 8.9 °F 19.4 °F 93% 29.50 in 1.2 mi West 12.7 mph - N/A Snow Light Snow
4:46 AM 21.2 °F 8.9 °F 19.4 °F 93% 29.50 in 1.5 mi West 12.7 mph - N/A Snow Light Snow
4:48 AM 21.2 °F 9.5 °F 19.4 °F 93% 29.50 in 1.8 mi West 11.5 mph - N/A Snow Light Snow
4:49 AM 21.2 °F 8.3 °F 19.4 °F 93% 29.50 in 2.0 mi West 13.8 mph - N/A Snow Light Snow
4:54 AM 21.2 °F 8.3 °F 19.4 °F 93% 29.50 in 3.0 mi West 13.8 mph - N/A Snow Light Snow
4:55 AM 21.2 °F 8.3 °F 18.5 °F 89% 29.50 in 3.0 mi West 13.8 mph - 0.01 in Snow Light Snow
4:56 AM 21.2 °F 7.8 °F 19.4 °F 93% 29.50 in 3.0 mi West 15.0 mph - N/A Snow Light Snow
4:58 AM 21.2 °F 8.3 °F 19.4 °F 93% 29.50 in 3.0 mi West 13.8 mph - N/A Snow Light Snow
5:00 AM 21.2 °F 8.3 °F 17.6 °F 86% 29.50 in 3.0 mi West 13.8 mph - N/A Snow Light Snow
5:11 AM 21.2 °F 10.1 °F 17.6 °F 86% 29.50 in 4.0 mi WSW 10.4 mph - N/A Snow Light Snow
5:14 AM 21.2 °F 10.1 °F 17.6 °F 86% 29.50 in 3.0 mi WSW 10.4 mph - N/A Snow Light Snow
5:16 AM 21.2 °F 9.5 °F 17.6 °F 86% 29.50 in 2.5 mi WSW 11.5 mph - N/A Snow Light Snow
5:30 AM 21.2 °F 8.9 °F 17.6 °F 86% 29.50 in 2.5 mi West 12.7 mph - N/A Snow Light Snow
5:31 AM 21.2 °F 8.9 °F 17.6 °F 86% 29.50 in 2.5 mi West 12.7 mph - N/A Snow Light Snow
5:34 AM 21.2 °F 9.5 °F 17.6 °F 86% 29.50 in 1.8 mi West 11.5 mph - N/A Snow Light Snow
5:39 AM 21.2 °F 10.9 °F 17.6 °F 86% 29.50 in 1.8 mi West 9.2 mph - N/A Snow Light Snow
5:44 AM 21.2 °F 10.1 °F 17.6 °F 86% 29.51 in 2.0 mi West 10.4 mph - N/A Snow Light Snow
5:46 AM 21.2 °F 9.5 °F 17.6 °F 86% 29.51 in 2.0 mi West 11.5 mph - N/A Snow Light Snow
5:48 AM 21.2 °F 10.1 °F 17.6 °F 86% 29.51 in 2.0 mi WSW 10.4 mph - N/A Snow Light Snow
5:49 AM 21.2 °F 9.5 °F 17.6 °F 86% 29.51 in 2.0 mi WSW 11.5 mph - N/A Snow Light Snow
5:53 AM 19.4 °F 5.5 °F 17.6 °F 93% 29.51 in 2.0 mi West 15.0 mph - N/A Snow Light Snow
5:55 AM 20.1 °F 6.4 °F 17.2 °F 89% 29.51 in 2.0 mi West 15.0 mph - 0.00 in Snow Light Snow
5:56 AM 19.4 °F 5.5 °F 17.6 °F 93% 29.51 in 1.8 mi West 15.0 mph - N/A Snow Light Snow
5:59 AM 19.4 °F 5.0 °F 15.8 °F 86% 29.51 in 1.5 mi West 16.1 mph - N/A Snow Light Snow
6:01 AM 19.4 °F 5.5 °F 15.8 °F 86% 29.51 in 1.5 mi West 15.0 mph - N/A Snow Light Snow
6:05 AM 19.4 °F 6.6 °F 15.8 °F 86% 29.51 in 1.8 mi West 12.7 mph - N/A Snow Light Snow
6:06 AM 19.4 °F 6.6 °F 15.8 °F 86% 29.51 in 1.8 mi West 12.7 mph - N/A Snow Light Snow
6:07 AM 19.4 °F 7.2 °F 15.8 °F 86% 29.51 in 2.0 mi West 11.5 mph - N/A Snow Light Snow
6:09 AM 19.4 °F 8.6 °F 15.8 °F 86% 29.51 in 2.5 mi West 9.2 mph - N/A Snow Light Snow
6:19 AM 19.4 °F 11.5 °F 15.8 °F 86% 29.51 in 2.5 mi WNW 5.8 mph - N/A Snow Light Snow
6:22 AM 19.4 °F 10.4 °F 15.8 °F 86% 29.51 in 3.0 mi WNW 6.9 mph - N/A Snow Light Snow
6:34 AM 19.4 °F 11.5 °F 15.8 °F 86% 29.51 in 3.0 mi North 5.8 mph - N/A Snow Light Snow
6:35 AM 19.4 °F 10.4 °F 15.8 °F 86% 29.51 in 3.0 mi North 6.9 mph - N/A Snow Light Snow
6:40 AM 19.4 °F 9.5 °F 14.0 °F 80% 29.51 in 4.0 mi North 8.1 mph - N/A Snow Light Snow
6:42 AM 17.6 °F 7.3 °F 14.0 °F 86% 29.51 in 5.0 mi North 8.1 mph - N/A Snow Light Snow
6:45 AM 17.6 °F 7.3 °F 14.0 °F 86% 29.52 in 7.0 mi North 8.1 mph - N/A Snow Light Snow
6:50 AM 17.6 °F 7.3 °F 14.0 °F 86% 29.52 in 7.0 mi North 8.1 mph - N/A Snow Light Snow
6:55 AM 17.8 °F 7.5 °F 14.0 °F 85% 29.52 in 6.0 mi North 8.1 mph - 0.01 in Snow Light Snow
7:09 AM 17.6 °F 8.2 °F 14.0 °F 86% 29.52 in 5.0 mi NNW 6.9 mph - N/A Snow Light Snow
7:36 AM 17.6 °F 7.3 °F 12.2 °F 79% 29.53 in 4.0 mi NNW 8.1 mph - N/A Snow Light Snow
7:40 AM 15.8 °F 3.4 °F 12.2 °F 86% 29.53 in 4.0 mi North 10.4 mph - N/A Snow Light Snow
7:54 AM 15.8 °F 5.1 °F 12.2 °F 86% 29.53 in 2.5 mi North 8.1 mph - N/A Snow Light Snow
7:55 AM 16.2 °F 5.5 °F 11.7 °F 82% 29.53 in 2.5 mi North 8.1 mph - 0.00 in Snow Light Snow
8:16 AM 15.8 °F 6.1 °F 10.4 °F 79% 29.53 in 3.0 mi North 6.9 mph - N/A Snow Light Snow
8:55 AM 14.5 °F 4.6 °F 9.7 °F 81% 29.55 in 4.0 mi Variable 6.9 mph - 0.00 in Snow Light Snow
9:26 AM 14.0 °F 5.1 °F 8.6 °F 79% 29.56 in 2.5 mi Variable 5.8 mph - N/A Snow Light Snow
9:32 AM 14.0 °F 5.1 °F 8.6 °F 79% 29.56 in 2.5 mi North 5.8 mph - N/A Snow Light Snow
9:38 AM 14.0 °F 5.1 °F 8.6 °F 79% 29.56 in 1.8 mi North 5.8 mph - N/A Snow Light Snow
9:39 AM 14.0 °F 5.1 °F 8.6 °F 79% 29.56 in 1.5 mi North 5.8 mph - N/A Snow Light Snow
9:40 AM 14.0 °F 5.1 °F 8.6 °F 79% 29.56 in 1.5 mi North 5.8 mph - N/A Snow Light Snow
9:41 AM 14.0 °F 3.9 °F 8.6 °F 79% 29.56 in 1.2 mi North 6.9 mph - N/A Snow Light Snow
9:44 AM 14.0 °F 5.1 °F 8.6 °F 79% 29.56 in 1.0 mi Variable 5.8 mph - N/A Snow Light Snow
9:45 AM 14.0 °F 5.1 °F 8.6 °F 79% 29.56 in 1.0 mi North 5.8 mph - N/A Snow Light Snow
9:48 AM 14.0 °F 3.9 °F 8.6 °F 79% 29.56 in 1.2 mi North 6.9 mph - N/A Snow Light Snow
9:55 AM 13.5 °F 3.3 °F 9.0 °F 82% 29.56 in 1.2 mi NNE 6.9 mph - 0.00 in Snow Light Snow
10:29 AM 12.2 °F 1.7 °F 8.6 °F 85% 29.57 in 1.0 mi Variable 6.9 mph - N/A Snow Light Snow
10:30 AM 12.2 °F 1.7 °F 8.6 °F 85% 29.57 in 1.2 mi NNE 6.9 mph - N/A Snow Light Snow
10:32 AM 12.2 °F 1.7 °F 8.6 °F 85% 29.57 in 1.0 mi Variable 6.9 mph - N/A Snow Light Snow
10:33 AM 12.2 °F 1.7 °F 8.6 °F 85% 29.57 in 1.2 mi Variable 6.9 mph - N/A Snow Light Snow
10:34 AM 12.2 °F 1.7 °F 8.6 °F 85% 29.57 in 1.0 mi Variable 6.9 mph - N/A Snow Light Snow
10:43 AM 12.2 °F 0.7 °F 8.6 °F 85% 29.57 in 1.0 mi North 8.1 mph - N/A Snow Light Snow
10:55 AM 12.4 °F 0.9 °F 8.2 °F 83% 29.58 in 1.2 mi North 8.1 mph - 0.01 in Snow Light Snow
11:12 AM 12.2 °F -1.0 °F 8.6 °F 85% 29.59 in 1.0 mi NNE 10.4 mph - N/A Snow Light Snow
11:14 AM 12.2 °F -0.2 °F 8.6 °F 85% 29.59 in 1.2 mi North 9.2 mph - N/A Snow Light Snow
11:25 AM 12.2 °F 0.7 °F 6.8 °F 79% 29.59 in 1.5 mi North 8.1 mph - N/A Snow Light Snow
11:35 AM 12.2 °F -0.2 °F 6.8 °F 79% 29.59 in 1.2 mi North 9.2 mph - N/A Snow Light Snow
11:40 AM 12.2 °F -0.2 °F 6.8 °F 79% 29.59 in 1.0 mi North 9.2 mph - N/A Snow Light Snow
11:43 AM 12.2 °F 0.7 °F 6.8 °F 79% 29.59 in 1.0 mi North 8.1 mph - N/A Snow Light Snow
11:45 AM 12.2 °F 0.7 °F 6.8 °F 79% 29.59 in 0.8 mi North 8.1 mph - N/A Snow Light Snow
11:47 AM 12.2 °F 2.9 °F 6.8 °F 79% 29.59 in 0.8 mi North 5.8 mph - N/A Snow Light Snow
11:48 AM 12.2 °F 4.3 °F 6.8 °F 79% 29.59 in 0.8 mi North 4.6 mph - N/A Snow Light Snow
11:55 AM 11.8 °F 1.3 °F 7.3 °F 82% 29.60 in 0.8 mi North 6.9 mph - 0.00 in Snow Light Snow
11:58 AM 12.2 °F 1.7 °F 6.8 °F 79% 29.60 in 0.8 mi North 6.9 mph - N/A Snow Light Snow
12:00 PM 12.2 °F 4.3 °F 6.8 °F 79% 29.60 in 1.0 mi North 4.6 mph - N/A Snow Light Snow
12:07 PM 12.2 °F 0.7 °F 6.8 °F 79% 29.60 in 1.0 mi North 8.1 mph - N/A Snow Light Snow
12:15 PM 12.2 °F 1.7 °F 6.8 °F 79% 29.60 in 1.2 mi North 6.9 mph - N/A Snow Light Snow
12:19 PM 12.2 °F -1.0 °F 6.8 °F 79% 29.60 in 1.5 mi North 10.4 mph - N/A Snow Light Snow
12:22 PM 12.2 °F 0.7 °F 6.8 °F 79% 29.60 in 1.8 mi North 8.1 mph - N/A Snow Light Snow
12:23 PM 12.2 °F -1.0 °F 6.8 °F 79% 29.60 in 1.5 mi North 10.4 mph - N/A Snow Light Snow
12:26 PM 12.2 °F 0.7 °F 6.8 °F 79% 29.60 in 1.2 mi North 8.1 mph - N/A Snow Light Snow
12:35 PM 12.2 °F 4.3 °F 6.8 °F 79% 29.60 in 1.5 mi North 4.6 mph - N/A Snow Light Snow
12:45 PM 12.2 °F 2.9 °F 6.8 °F 79% 29.60 in 1.8 mi North 5.8 mph - N/A Snow Light Snow
12:50 PM 12.2 °F 2.9 °F 8.6 °F 85% 29.60 in 1.5 mi North 5.8 mph - N/A Snow Light Snow
12:55 PM 12.2 °F 2.9 °F 7.7 °F 82% 29.60 in 1.5 mi Variable 5.8 mph - 0.01 in Snow Light Snow
1:03 PM 12.2 °F 4.3 °F 8.6 °F 85% 29.60 in 1.8 mi North 4.6 mph - N/A Snow Light Snow
1:07 PM 12.2 °F 0.7 °F 6.8 °F 79% 29.60 in 2.0 mi North 8.1 mph - N/A Snow Light Snow
1:19 PM 12.2 °F 0.7 °F 6.8 °F 79% 29.61 in 2.5 mi North 8.1 mph - N/A Snow Light Snow
1:32 PM 12.2 °F 1.7 °F 6.8 °F 79% 29.61 in 1.8 mi North 6.9 mph - N/A Snow Light Snow
1:37 PM 12.2 °F 4.3 °F 6.8 °F 79% 29.62 in 1.5 mi Variable 4.6 mph - N/A Snow Light Snow
1:39 PM 12.2 °F 4.3 °F 6.8 °F 79% 29.62 in 1.2 mi North 4.6 mph - N/A Snow Light Snow
1:46 PM 12.2 °F 0.7 °F 6.8 °F 79% 29.62 in 1.2 mi North 8.1 mph - N/A Snow Light Snow
1:48 PM 12.2 °F 0.7 °F 6.8 °F 79% 29.62 in 1.5 mi NNE 8.1 mph - N/A Snow Light Snow
1:50 PM 12.2 °F 0.7 °F 6.8 °F 79% 29.62 in 1.8 mi North 8.1 mph - N/A Snow Light Snow
1:52 PM 12.2 °F 1.7 °F 6.8 °F 79% 29.62 in 2.0 mi Variable 6.9 mph - N/A Snow Light Snow
1:55 PM 11.7 °F 1.1 °F 6.8 °F 81% 29.62 in 2.0 mi Variable 6.9 mph - 0.00 in Snow Light Snow
2:00 PM 12.2 °F 2.9 °F 6.8 °F 79% 29.62 in 3.0 mi NNE 5.8 mph - N/A Snow Light Snow
2:03 PM 12.2 °F 0.7 °F 6.8 °F 79% 29.62 in 2.5 mi North 8.1 mph - N/A Snow Light Snow
2:13 PM 12.2 °F 1.7 °F 6.8 °F 79% 29.62 in 1.5 mi NNE 6.9 mph - N/A Snow Light Snow
2:17 PM 12.2 °F -0.2 °F 6.8 °F 79% 29.62 in 1.2 mi North 9.2 mph - N/A Snow Light Snow
2:27 PM 12.2 °F 2.9 °F 6.8 °F 79% 29.63 in 1.2 mi North 5.8 mph - N/A Snow Light Snow
2:36 PM 12.2 °F 2.9 °F 6.8 °F 79% 29.63 in 1.5 mi NNE 5.8 mph - N/A Snow Light Snow
2:41 PM 12.2 °F 2.9 °F 6.8 °F 79% 29.63 in 1.8 mi North 5.8 mph - N/A Snow Light Snow
2:45 PM 12.2 °F 2.9 °F 6.8 °F 79% 29.63 in 1.8 mi North 5.8 mph - N/A Snow Light Snow
2:48 PM 12.2 °F 6.1 °F 6.8 °F 79% 29.64 in 1.5 mi Variable 3.5 mph - N/A Snow Light Snow
2:55 PM 11.8 °F 5.7 °F 7.0 °F 81% 29.64 in 1.8 mi North 3.5 mph - 0.01 in Snow Light Snow
2:59 PM 12.2 °F 6.1 °F 6.8 °F 79% 29.64 in 2.0 mi Variable 3.5 mph - N/A Snow Light Snow
3:06 PM 12.2 °F 4.3 °F 6.8 °F 79% 29.64 in 3.0 mi NNW 4.6 mph - N/A Snow Light Snow
3:11 PM 12.2 °F 2.9 °F 6.8 °F 79% 29.64 in 3.0 mi Variable 5.8 mph - N/A Snow Light Snow
3:17 PM 12.2 °F 0.7 °F 6.8 °F 79% 29.65 in 5.0 mi North 8.1 mph - N/A Snow Light Snow
3:30 PM 10.4 °F -3.3 °F 5.0 °F 79% 29.65 in 6.0 mi North 10.4 mph - N/A Snow Light Snow
3:41 PM 10.4 °F -2.4 °F 5.0 °F 79% 29.65 in 6.0 mi North 9.2 mph - N/A Snow Light Snow
3:42 PM 10.4 °F -1.5 °F 5.0 °F 79% 29.65 in 6.0 mi North 8.1 mph - N/A Snow Light Snow
3:43 PM 10.4 °F -1.5 °F 5.0 °F 79% 29.65 in 6.0 mi North 8.1 mph - N/A Snow Light Snow
3:46 PM 10.4 °F -0.4 °F 5.0 °F 79% 29.66 in 7.0 mi Variable 6.9 mph - N/A Snow Light Snow
3:47 PM 10.4 °F -2.4 °F 5.0 °F 79% 29.65 in 7.0 mi North 9.2 mph - N/A Snow Light Snow
3:48 PM 10.4 °F -1.5 °F 5.0 °F 79% 29.66 in 7.0 mi NNW 8.1 mph - N/A Snow Light Snow
3:51 PM 10.4 °F 0.8 °F 5.0 °F 79% 29.66 in 6.0 mi Variable 5.8 mph - N/A Snow Light Snow
3:54 PM 10.4 °F -1.5 °F 5.0 °F 79% 29.66 in 5.0 mi North 8.1 mph - N/A Snow Light Snow
3:55 PM 10.9 °F -0.8 °F 4.8 °F 76% 29.66 in 5.0 mi NNW 8.1 mph - 0.00 in Snow Light Snow
4:00 PM 10.4 °F -2.4 °F 5.0 °F 79% 29.66 in 4.0 mi North 9.2 mph - N/A Snow Light Snow
4:02 PM 10.4 °F -1.5 °F 5.0 °F 79% 29.66 in 4.0 mi North 8.1 mph - N/A Snow Light Snow
4:06 PM 10.4 °F -1.5 °F 5.0 °F 79% 29.67 in 4.0 mi North 8.1 mph - N/A Snow Light Snow
4:11 PM 10.4 °F 0.8 °F 5.0 °F 79% 29.67 in 2.5 mi Variable 5.8 mph - N/A Snow Light Snow
4:14 PM 10.4 °F -1.5 °F 5.0 °F 79% 29.67 in 2.0 mi North 8.1 mph - N/A Snow Light Snow
4:17 PM 10.4 °F -2.4 °F 5.0 °F 79% 29.67 in 2.0 mi North 9.2 mph - N/A Snow Light Snow
4:19 PM 10.4 °F -1.5 °F 5.0 °F 79% 29.67 in 2.0 mi North 8.1 mph - N/A Snow Light Snow
4:21 PM 10.4 °F 2.2 °F 5.0 °F 79% 29.67 in 1.8 mi Variable 4.6 mph - N/A Snow Light Snow
4:24 PM 10.4 °F - 5.0 °F 79% 29.67 in 1.5 mi Calm Calm - N/A Snow Light Snow
4:28 PM 10.4 °F - 5.0 °F 79% 29.67 in 1.2 mi Calm Calm - N/A Snow Light Snow
4:31 PM 10.4 °F 2.2 °F 5.0 °F 79% 29.67 in 1.2 mi Variable 4.6 mph - N/A Snow Light Snow
4:41 PM 10.4 °F 4.0 °F 5.0 °F 79% 29.67 in 1.0 mi Variable 3.5 mph - N/A Snow Light Snow
4:44 PM 10.4 °F 2.2 °F 5.0 °F 79% 29.68 in 1.2 mi North 4.6 mph - N/A Snow Light Snow
4:45 PM 10.4 °F 2.2 °F 5.0 °F 79% 29.68 in 1.2 mi North 4.6 mph - N/A Snow Light Snow
4:47 PM 10.4 °F 2.2 °F 5.0 °F 79% 29.68 in 1.5 mi Variable 4.6 mph - N/A Snow Light Snow
4:51 PM 10.4 °F 4.0 °F 5.0 °F 79% 29.68 in 2.0 mi North 3.5 mph - N/A Snow Light Snow
4:55 PM 10.6 °F 1.0 °F 5.5 °F 80% 29.68 in 2.5 mi North 5.8 mph - 0.00 in Snow Light Snow
4:59 PM 10.4 °F - 5.0 °F 79% 29.68 in 3.0 mi Calm Calm - N/A Snow Light Snow
5:04 PM 10.4 °F - 5.0 °F 79% 29.68 in 2.5 mi Calm Calm - N/A Snow Light Snow
5:08 PM 10.4 °F - 5.0 °F 79% 29.68 in 3.0 mi Calm Calm - N/A Snow Light Snow
5:10 PM 10.4 °F - 5.0 °F 79% 29.69 in 2.5 mi Calm Calm - N/A Snow Light Snow
5:20 PM 10.4 °F - 5.0 °F 79% 29.69 in 3.0 mi Calm Calm - N/A Snow Light Snow
5:29 PM 10.4 °F - 5.0 °F 79% 29.70 in 2.5 mi Calm Calm - N/A Snow Light Snow
5:34 PM 10.4 °F - 5.0 °F 79% 29.70 in 3.0 mi Calm Calm - N/A Snow Light Snow
5:55 PM 10.8 °F 4.5 °F 5.0 °F 78% 29.71 in 3.0 mi Variable 3.5 mph - 0.00 in Snow Light Snow
5:58 PM 10.4 °F 4.0 °F 5.0 °F 79% 29.71 in 2.5 mi NNW 3.5 mph - N/A Snow Light Snow
6:15 PM 10.4 °F - 5.0 °F 79% 29.72 in 1.8 mi Calm Calm - N/A Snow Light Snow
6:19 PM 10.4 °F - 5.0 °F 79% 29.72 in 1.5 mi Calm Calm - N/A Snow Light Snow
6:24 PM 10.4 °F - 5.0 °F 79% 29.72 in 1.8 mi Calm Calm - N/A Snow Light Snow
6:29 PM 10.4 °F - 5.0 °F 79% 29.72 in 2.0 mi Calm Calm - N/A Snow Light Snow
6:34 PM 10.4 °F 4.0 °F 5.0 °F 79% 29.73 in 1.8 mi Variable 3.5 mph - N/A Snow Light Snow
6:41 PM 10.4 °F 2.2 °F 5.0 °F 79% 29.73 in 2.0 mi North 4.6 mph - N/A Snow Light Snow
6:44 PM 10.4 °F 4.0 °F 5.0 °F 79% 29.73 in 1.8 mi NNW 3.5 mph - N/A Snow Light Snow
6:47 PM 10.4 °F 4.0 °F 5.0 °F 79% 29.74 in 2.0 mi Variable 3.5 mph - N/A Snow Light Snow
6:55 PM 10.6 °F 2.5 °F 5.2 °F 79% 29.74 in 2.0 mi Variable 4.6 mph - 0.00 in Snow Light Snow
7:18 PM 10.4 °F 2.2 °F 5.0 °F 79% 29.75 in 1.2 mi Variable 4.6 mph - N/A Snow Light Snow
7:23 PM 10.4 °F -0.4 °F 5.0 °F 79% 29.76 in 0.8 mi Variable 6.9 mph - N/A Snow Light Snow
7:26 PM 10.4 °F 2.2 °F 5.0 °F 79% 29.76 in 0.5 mi Variable 4.6 mph - N/A Snow Snow
7:34 PM 10.4 °F -1.5 °F 5.0 °F 79% 29.76 in 1.8 mi North 8.1 mph - N/A Snow Light Snow
7:35 PM 10.4 °F -0.4 °F 5.0 °F 79% 29.76 in 2.5 mi North 6.9 mph - N/A Snow Light Snow
7:37 PM 10.4 °F 0.8 °F 5.0 °F 79% 29.77 in 3.0 mi NW 5.8 mph - N/A Snow Light Snow
7:44 PM 10.4 °F -0.4 °F 5.0 °F 79% 29.77 in 2.5 mi Variable 6.9 mph - N/A Snow Light Snow
7:45 PM 10.4 °F -0.4 °F 5.0 °F 79% 29.77 in 1.8 mi Variable 6.9 mph - N/A Snow Light Snow
7:46 PM 10.4 °F 0.8 °F 5.0 °F 79% 29.77 in 1.5 mi Variable 5.8 mph - N/A Snow Light Snow
7:55 PM 10.2 °F 3.8 °F 5.0 °F 79% 29.78 in 2.0 mi Variable 3.5 mph - 0.00 in Snow Light Snow
7:57 PM 10.4 °F 4.0 °F 5.0 °F 79% 29.78 in 3.0 mi NNW 3.5 mph - N/A Snow Light Snow
8:01 PM 10.4 °F - 5.0 °F 79% 29.78 in 2.5 mi Calm Calm - N/A Snow Light Snow
8:04 PM 10.4 °F - 5.0 °F 79% 29.78 in 3.0 mi Calm Calm - N/A Snow Light Snow
8:06 PM 10.4 °F 4.0 °F 5.0 °F 79% 29.78 in 3.0 mi North 3.5 mph - N/A Snow Light Snow
8:37 PM 10.4 °F 4.0 °F 5.0 °F 79% 29.80 in 4.0 mi North 3.5 mph - N/A Snow Light Snow
8:45 PM 10.4 °F -0.4 °F 5.0 °F 79% 29.81 in 4.0 mi North 6.9 mph - N/A Snow Light Snow
8:51 PM 10.4 °F 0.8 °F 5.0 °F 79% 29.81 in 5.0 mi North 5.8 mph - N/A Snow Light Snow
8:55 PM 10.4 °F 2.2 °F 4.8 °F 78% 29.82 in 4.0 mi NNW 4.6 mph - 0.00 in Snow Light Snow
9:05 PM 10.4 °F 0.8 °F 5.0 °F 79% 29.83 in 3.0 mi Variable 5.8 mph - N/A Snow Light Snow
9:18 PM 10.4 °F -2.4 °F 5.0 °F 79% 29.83 in 3.0 mi North 9.2 mph - N/A Snow Light Snow
9:20 PM 10.4 °F -1.5 °F 5.0 °F 79% 29.83 in 3.0 mi North 8.1 mph - N/A Snow Light Snow
9:40 PM 10.4 °F -1.5 °F 5.0 °F 79% 29.84 in 4.0 mi North 8.1 mph - N/A Snow Light Snow
9:55 PM 10.0 °F -2.9 °F 4.1 °F 77% 29.86 in 5.0 mi North 9.2 mph - 0.00 in Snow Light Snow
10:00 PM 10.4 °F -1.5 °F 5.0 °F 79% 29.86 in 6.0 mi North 8.1 mph - N/A Snow Light Snow
10:55 PM 9.7 °F -3.3 °F 3.4 °F 76% 29.89 in 10.0 mi North 9.2 mph - 0.00 in Snow Light Snow
11:55 PM 9.5 °F -0.3 °F 2.5 °F 73% 29.93 in 8.0 mi Variable 5.8 mph - 0.00 in Snow Light Snow